Fresno, CA

6:42 PM PST on January 22, 2018 (GMT -0800)
Fresno Yosemite International

Weather History for KFAT - November, 2012

Change the Weather History Date:

Wednesday, November 28, 2012

  Actual Average Record
Temperature  
Mean Temperature 55 °F 50 °F  
Max Temperature 61 °F 60 °F 76 °F (1891)
Min Temperature 48 °F 40 °F 28 °F (1948)
Degree Days  
Heating Degree Days 10    
Month to date heating degree days 198  
Since 1 July heating degree days 236  
Cooling Degree Days 0    
Month to date cooling degree days 11  
Year to date cooling degree days 2644  
Growing Degree Days 4 (Base 50)    
Moisture  
Dew Point 48 °F    
Average Humidity 73    
Maximum Humidity 86    
Minimum Humidity 60    
Precipitation  
Precipitation 0.11 in 0.03 in 0.42 in (1982)
Month to date precipitation 0.49 0.99  
Year to date precipitation 7.32 9.65  
Since 1 July precipitation 0.74  
Snow  
Snow 0.00 in - - ()
Month to date snowfall 0.0  
Since 1 July snowfall 0.0  
Since 1 September snowfall 0.0  
Snow Depth 0.00 in    
Sea Level Pressure  
Sea Level Pressure 30.05 in    
Wind  
Wind Speed 7 mph (ESE)    
Max Wind Speed 18 mph    
Max Gust Speed 25 mph    
Visibility 6 miles    
Events Rain    
T = Trace of Precipitation, MM = Missing Value Source: NWS Daily Summary

Daily Weather History Graph

Daily Weather History Graph

Search for Another Location

Airport or City:

Trip Planner

Search our weather history database for the weather conditions in past years. The results will help you decide how hot, cold, wet, or windy it might be!

Date:

Astronomy

Nov. 28, 2012 Rise Set
Actual Time 6:50 AM PST 4:43 PM PST
Civil Twilight 6:22 AM PST 5:11 PM PST
Nautical Twilight 5:50 AM PST 5:43 PM PST
Astronomical Twilight 5:19 AM PST 6:14 PM PST
Moon 5:02 PM PST (11/28) 6:52 AM PST (11/28)
Length of Visible Light 10h 49m
Length of Day
9h 52m
Full, 100% of the Moon is Illuminated
Nov 28
Full
Dec 6
Last Quarter
Dec 13
New
Dec 19
First Quarter
Dec 28
Full

Hourly Weather History & Observations

Time (PST) Temp. Dew Point Humidity Pressure Visibility Wind Dir Wind Speed Gust Speed Precip Events Conditions
12:04 AM 51.8 °F 46.4 °F 82% 30.07 in 2.0 mi East 4.6 mph - N/A   Haze
12:53 AM 50.0 °F 45.0 °F 83% 30.04 in 2.0 mi North - - N/A   Haze
1:53 AM 48.0 °F 44.1 °F 86% 30.02 in 2.0 mi SE 3.5 mph - N/A   Clear
2:53 AM 50.0 °F 45.0 °F 83% 30.00 in 2.0 mi SE 5.8 mph - N/A   Haze
3:37 AM 51.8 °F 44.6 °F 76% 29.97 in 3.0 mi ESE 6.9 mph - N/A   Haze
3:53 AM 51.1 °F 45.0 °F 80% 29.97 in 3.0 mi ESE 8.1 mph - N/A   Haze
4:53 AM 48.0 °F 43.0 °F 83% 29.99 in 3.0 mi SSE 6.9 mph - N/A   Haze
5:53 AM 48.9 °F 43.0 °F 80% 30.01 in 3.0 mi ESE 6.9 mph - N/A   Haze
6:53 AM 52.0 °F 44.1 °F 74% 30.02 in 3.0 mi East 11.5 mph - N/A   Haze
7:53 AM 53.1 °F 46.0 °F 77% 30.04 in 5.0 mi Calm Calm - N/A   Haze
8:53 AM 55.0 °F 45.0 °F 69% 30.05 in 5.0 mi East 3.5 mph - N/A   Haze
9:53 AM 57.9 °F 46.0 °F 65% 30.05 in 6.0 mi East 10.4 mph - N/A   Haze
10:53 AM 61.0 °F 46.0 °F 58% 30.02 in 4.0 mi ESE 10.4 mph - N/A   Haze
11:53 AM 57.0 °F 50.0 °F 77% 30.06 in 3.0 mi Variable 3.5 mph - 0.06 in Rain Light Rain
12:53 PM 57.9 °F 51.1 °F 78% 30.05 in 3.0 mi NE 10.4 mph - 0.05 in   Haze
1:53 PM 60.1 °F 51.1 °F 72% 30.04 in 8.0 mi East 13.8 mph - N/A   Overcast
2:53 PM 59.0 °F 52.0 °F 78% 30.05 in 10.0 mi East 16.1 mph - N/A   Overcast
3:53 PM 59.0 °F 51.1 °F 75% 30.05 in 10.0 mi East 10.4 mph - N/A   Mostly Cloudy
4:53 PM 60.1 °F 51.1 °F 72% 30.06 in 10.0 mi East 8.1 mph - N/A   Overcast
5:53 PM 60.1 °F 51.1 °F 72% 30.08 in 10.0 mi East 6.9 mph - N/A   Mostly Cloudy
6:53 PM 60.1 °F 52.0 °F 75% 30.09 in 10.0 mi SE 8.1 mph - N/A   Mostly Cloudy
7:53 PM 57.9 °F 53.1 °F 84% 30.09 in 10.0 mi SE 3.5 mph - N/A   Mostly Cloudy
8:53 PM 57.9 °F 53.1 °F 84% 30.09 in 10.0 mi Calm Calm - N/A   Mostly Cloudy
9:53 PM 59.0 °F 53.1 °F 81% 30.10 in 10.0 mi East 4.6 mph - N/A   Mostly Cloudy
10:53 PM 60.8 °F 53.6 °F 77% 30.10 in 10.0 mi East 5.8 mph - N/A   Mostly Cloudy
11:53 PM 57.9 °F 53.1 °F 84% 30.10 in 10.0 mi SSE 8.1 mph - 0.00 in   Overcast